• Em Portugal
  • Lista de países
  • Para 7 dias
  • Temperatura da água
  • Mapas de satélite
  • Mapa do tempo
  • Widgets de tempo
  • user-avatar
    Iniciar Sessão

    Previsão horária em Corozal

    Hoje, 21 Junho, Quinta-feira

    Tempo Temperatura Precipitação Vento Pressão Humidade
    00:00 +27°C° 0 mm 3 m/s 758 mmHg 96%
    01:00 +27°C° 0 mm 2 m/s 758 mmHg 96%
    02:00 +26°C° 0 mm 2 m/s 758 mmHg 96%
    03:00 +26°C° 0 mm 2 m/s 757 mmHg 97%
    04:00 +27°C° 0 mm 2 m/s 758 mmHg 96%
    05:00 +27°C° 0 mm 2 m/s 758 mmHg 96%
    06:00 +27°C° 0 mm 2 m/s 758 mmHg 94%
    07:00 +29°C° 0 mm 2 m/s 758 mmHg 86%
    08:00 +30°C° 0 mm 3 m/s 758 mmHg 78%
    09:00 +33°C° 0 mm 3 m/s 758 mmHg 70%
    10:00 +34°C° 0,1 mm 3 m/s 758 mmHg 68%
    11:00 +34°C° 0,1 mm 4 m/s 758 mmHg 65%
    12:00 +35°C° 0,1 mm 4 m/s 758 mmHg 63%
    13:00 +35°C° 0,3 mm 4 m/s 757 mmHg 63%
    14:00 +35°C° 0,3 mm 4 m/s 757 mmHg 64%
    15:00 +35°C° 0,3 mm 4 m/s 757 mmHg 64%
    16:00 +34°C° 0 mm 3 m/s 757 mmHg 69%
    17:00 +33°C° 0 mm 3 m/s 757 mmHg 73%
    18:00 +30°C° 0 mm 3 m/s 757 mmHg 78%
    19:00 +29°C° 0 mm 3 m/s 757 mmHg 83%
    20:00 +28°C° 0 mm 3 m/s 758 mmHg 88%
    21:00 +27°C° 0 mm 2 m/s 758 mmHg 94%
    22:00 +27°C° 0 mm 2 m/s 758 mmHg 95%
    23:00 +27°C° 0 mm 2 m/s 758 mmHg 96%

    Amanhã, 22 Junho, Sexta-feira

    Tempo Temperatura Precipitação Vento Pressão Humidade
    00:00 +27°C° 0 mm 2 m/s 758 mmHg 97%
    01:00 +27°C° 0 mm 2 m/s 758 mmHg 97%
    02:00 +27°C° 0 mm 2 m/s 758 mmHg 97%
    03:00 +27°C° 0 mm 2 m/s 757 mmHg 97%
    04:00 +27°C° 0 mm 2 m/s 758 mmHg 96%
    05:00 +27°C° 0 mm 2 m/s 758 mmHg 96%
    06:00 +27°C° 0 mm 2 m/s 758 mmHg 95%
    07:00 +29°C° 0 mm 2 m/s 758 mmHg 88%
    08:00 +30°C° 0 mm 3 m/s 758 mmHg 81%
    09:00 +31°C° 0 mm 3 m/s 759 mmHg 74%
    10:00 +33°C° 0,1 mm 3 m/s 759 mmHg 70%
    11:00 +34°C° 0,1 mm 3 m/s 759 mmHg 66%
    12:00 +35°C° 0,1 mm 3 m/s 758 mmHg 62%
    13:00 +35°C° 0,1 mm 3 m/s 758 mmHg 61%
    14:00 +35°C° 0,1 mm 4 m/s 758 mmHg 61%
    15:00 +35°C° 0,1 mm 4 m/s 757 mmHg 60%
    16:00 +34°C° 0,1 mm 3 m/s 757 mmHg 66%
    17:00 +33°C° 0,1 mm 3 m/s 757 mmHg 71%
    18:00 +30°C° 0,1 mm 3 m/s 757 mmHg 77%
    19:00 +29°C° 0 mm 3 m/s 758 mmHg 82%
    20:00 +29°C° 0 mm 3 m/s 758 mmHg 87%
    21:00 +28°C° 0 mm 3 m/s 758 mmHg 91%
    22:00 +28°C° 0 mm 3 m/s 758 mmHg 92%
    23:00 +27°C° 0 mm 3 m/s 758 mmHg 93%

    Depois de amanhã, 23 Junho, Sábado

    Tempo Temperatura Precipitação Vento Pressão Humidade
    00:00 +27°C° 0 mm 3 m/s 758 mmHg 94%
    01:00 +27°C° 0,2 mm 3 m/s 758 mmHg 95%
    02:00 +27°C° 0,2 mm 3 m/s 758 mmHg 96%
    03:00 +27°C° 0,2 mm 3 m/s 757 mmHg 97%
    04:00 +27°C° 0,3 mm 3 m/s 758 mmHg 96%
    05:00 +27°C° 0,3 mm 3 m/s 758 mmHg 96%
    06:00 +27°C° 0,3 mm 3 m/s 758 mmHg 95%
    07:00 +28°C° 0,1 mm 3 m/s 758 mmHg 90%
    08:00 +29°C° 0,1 mm 3 m/s 759 mmHg 85%
    09:00 +30°C° 0,1 mm 3 m/s 759 mmHg 80%
    10:00 +33°C° 0 mm 3 m/s 759 mmHg 74%
    11:00 +34°C° 0 mm 4 m/s 759 mmHg 67%
    12:00 +35°C° 0 mm 4 m/s 759 mmHg 60%
    13:00 +35°C° 0 mm 4 m/s 758 mmHg 62%
    14:00 +34°C° 0 mm 4 m/s 758 mmHg 64%
    15:00 +34°C° 0 mm 4 m/s 757 mmHg 66%
    16:00 +33°C° 0 mm 4 m/s 757 mmHg 70%
    17:00 +32°C° 0 mm 4 m/s 757 mmHg 74%
    18:00 +30°C° 0 mm 3 m/s 757 mmHg 77%
    19:00 +29°C° 0 mm 3 m/s 758 mmHg 81%
    20:00 +28°C° 0 mm 3 m/s 758 mmHg 84%
    21:00 +27°C° 0 mm 3 m/s 758 mmHg 88%
    22:00 +27°C° 0 mm 3 m/s 759 mmHg 88%
    23:00 +27°C° 0 mm 3 m/s 759 mmHg 87%

    24 Junho, Domingo

    Tempo Temperatura Precipitação Vento Pressão Humidade
    00:00 +27°C° 0 mm 3 m/s 759 mmHg 87%
    01:00 +27°C° 0 mm 3 m/s 758 mmHg 87%
    02:00 +27°C° 0 mm 3 m/s 758 mmHg 87%
    03:00 +27°C° 0 mm 3 m/s 758 mmHg 86%
    04:00 +27°C° 0 mm 3 m/s 758 mmHg 87%
    05:00 +27°C° 0 mm 3 m/s 758 mmHg 88%
    06:00 +27°C° 0 mm 3 m/s 758 mmHg 88%
    07:00 +29°C° 0 mm 3 m/s 758 mmHg 81%
    08:00 +30°C° 0 mm 4 m/s 759 mmHg 74%
    09:00 +33°C° 0 mm 4 m/s 759 mmHg 67%
    10:00 +34°C° 0,1 mm 4 m/s 759 mmHg 63%
    11:00 +35°C° 0,1 mm 4 m/s 759 mmHg 60%
    12:00 +36°C° 0,1 mm 4 m/s 759 mmHg 56%
    13:00 +36°C° 0 mm 4 m/s 758 mmHg 56%
    14:00 +36°C° 0 mm 4 m/s 758 mmHg 56%
    15:00 +36°C° 0 mm 4 m/s 757 mmHg 56%
    16:00 +34°C° 0 mm 4 m/s 757 mmHg 62%
    17:00 +33°C° 0 mm 4 m/s 758 mmHg 68%
    18:00 +31°C° 0 mm 3 m/s 758 mmHg 74%
    19:00 +30°C° 0,1 mm 3 m/s 758 mmHg 79%
    20:00 +29°C° 0,1 mm 3 m/s 759 mmHg 85%
    21:00 +28°C° 0,1 mm 3 m/s 760 mmHg 90%
    22:00 +27°C° 0 mm 3 m/s 760 mmHg 91%
    23:00 +27°C° 0 mm 3 m/s 759 mmHg 92%

    25 Junho, Segunda-feira

    Tempo Temperatura Precipitação Vento Pressão Humidade
    00:00 +27°C° 0 mm 3 m/s 759 mmHg 93%
    01:00 +27°C° 0 mm 3 m/s 759 mmHg 94%
    02:00 +27°C° 0 mm 3 m/s 759 mmHg 94%
    03:00 +26°C° 0 mm 2 m/s 758 mmHg 94%
    04:00 +27°C° 0 mm 2 m/s 758 mmHg 93%
    05:00 +27°C° 0 mm 2 m/s 759 mmHg 93%
    06:00 +27°C° 0 mm 2 m/s 759 mmHg 92%
    07:00 +29°C° 0,1 mm 3 m/s 759 mmHg 83%
    08:00 +30°C° 0,1 mm 3 m/s 759 mmHg 75%
    09:00 +33°C° 0,1 mm 4 m/s 760 mmHg 66%
    10:00 +34°C° 0,3 mm 4 m/s 760 mmHg 63%
    11:00 +35°C° 0,3 mm 4 m/s 760 mmHg 60%
    12:00 +35°C° 0,3 mm 4 m/s 760 mmHg 57%
    13:00 +35°C° 0,9 mm 4 m/s 759 mmHg 63%
    14:00 +34°C° 0,9 mm 4 m/s 759 mmHg 69%
    15:00 +33°C° 0,9 mm 4 m/s 758 mmHg 74%
    16:00 +31°C° 0,1 mm 3 m/s 759 mmHg 75%
    17:00 +31°C° 0,1 mm 3 m/s 759 mmHg 76%
    18:00 +30°C° 0,1 mm 3 m/s 759 mmHg 77%
    19:00 +29°C° 0 mm 3 m/s 759 mmHg 81%
    20:00 +28°C° 0 mm 3 m/s 760 mmHg 85%
    21:00 +27°C° 0 mm 3 m/s 760 mmHg 88%
    22:00 +27°C° 0 mm 3 m/s 760 mmHg 90%
    23:00 +27°C° 0 mm 3 m/s 760 mmHg 92%

    26 Junho, Terça-feira

    Tempo Temperatura Precipitação Vento Pressão Humidade
    00:00 +26°C° 0 mm 3 m/s 760 mmHg 93%
    01:00 +26°C° 0,1 mm 3 m/s 759 mmHg 94%
    02:00 +26°C° 0,1 mm 3 m/s 759 mmHg 95%
    03:00 +26°C° 0,1 mm 3 m/s 759 mmHg 95%
    04:00 +26°C° 0 mm 3 m/s 759 mmHg 95%
    05:00 +26°C° 0 mm 3 m/s 759 mmHg 95%
    06:00 +27°C° 0 mm 3 m/s 759 mmHg 94%
    07:00 +28°C° 0,1 mm 3 m/s 760 mmHg 85%
    08:00 +30°C° 0,1 mm 3 m/s 760 mmHg 76%
    09:00 +33°C° 0,1 mm 4 m/s 760 mmHg 66%
    10:00 +34°C° 0,2 mm 4 m/s 760 mmHg 63%
    11:00 +35°C° 0,2 mm 4 m/s 760 mmHg 60%
    12:00 +36°C° 0,2 mm 4 m/s 759 mmHg 57%
    13:00 +35°C° 0,3 mm 4 m/s 759 mmHg 58%
    14:00 +35°C° 0,3 mm 4 m/s 759 mmHg 60%
    15:00 +35°C° 0,3 mm 4 m/s 758 mmHg 62%
    16:00 +33°C° 0,3 mm 3 m/s 758 mmHg 69%
    17:00 +31°C° 0,3 mm 3 m/s 759 mmHg 76%
    18:00 +29°C° 0,3 mm 3 m/s 759 mmHg 83%
    19:00 +29°C° 0,3 mm 3 m/s 759 mmHg 87%
    20:00 +28°C° 0,3 mm 3 m/s 760 mmHg 91%
    21:00 +27°C° 0,3 mm 3 m/s 760 mmHg 96%
    22:00 +27°C° 0 mm 3 m/s 760 mmHg 96%
    23:00 +26°C° 0 mm 2 m/s 760 mmHg 97%
    Mostrar mais